Weather History for Manteo, NC

Change the Weather History Date:

Monday, March 4, 2013

  Actual Average Record
Temperature  
Mean Temperature 38 °F -  
Max Temperature 46 °F 53 °F 78 °F (1976)
Min Temperature 31 °F 40 °F 28 °F (1968)
Degree Days  
Heating Degree Days 26    
Moisture  
Dew Point 24 °F    
Average Humidity 55    
Maximum Humidity 90    
Minimum Humidity 36    
Precipitation  
Precipitation 0.00 in - - ()
Sea Level Pressure  
Sea Level Pressure 29.99 in    
Wind  
Wind Speed 8 mph (NW)    
Max Wind Speed 15 mph    
Max Gust Speed 22 mph    
Visibility 10 miles    
Events      
Averages and records for this station are not official NWS values.
T = Trace of Precipitation, MM = Missing Value Source: NWS Daily Summary

Daily Weather History Graph

Daily Weather History Graph

Search for Another Location

Airport:

Trip Planner

Search our weather history database for the weather conditions in past years. The results will help you decide how hot, cold, wet, or windy it might be!

Date:

Astronomy

Mar. 04, 2013 Rise Set
Actual Time 6:28 AM EST 6:00 PM EST
Civil Twilight 6:02 AM EST 6:26 PM EST
Nautical Twilight 5:33 AM EST 6:56 PM EST
Astronomical Twilight 5:03 AM EST 7:25 PM EST
Moon 12:27 AM EST (3/4) 10:48 AM EST (3/4)
Length of Visible Light 12h 23m
Length of Day
11h 32m
Waning Gibbous, 52% of the Moon is Illuminated
Mar 4
Waning Gibbous
Mar 4
Last Quarter
Mar 11
New
Mar 19
First Quarter
Mar 27
Full

Hourly Weather History & Observations

Time (EST) Temp. Windchill Dew Point Humidity Pressure Visibility Wind Dir Wind Speed Gust Speed Precip Events Conditions
12:15 AM 31.8 °F - 28.9 °F 89% 29.89 in 10.0 mi Calm Calm - N/A   Clear
12:35 AM 31.1 °F 27.7 °F 28.6 °F 90% 29.89 in 10.0 mi WNW 3.5 mph - N/A   Scattered Clouds
12:55 AM 38.5 °F 33.4 °F 29.3 °F 70% 29.90 in 10.0 mi NW 6.9 mph - N/A   Scattered Clouds
1:15 AM 38.5 °F 34.1 °F 29.8 °F 71% 29.90 in 10.0 mi NW 5.8 mph - N/A   Clear
1:35 AM 37.0 °F - 30.2 °F 76% 29.89 in 10.0 mi Calm Calm - N/A   Clear
1:55 AM 33.1 °F 30.0 °F 29.7 °F 87% 29.89 in 10.0 mi North 3.5 mph - N/A   Clear
2:15 AM 37.4 °F 32.1 °F 28.4 °F 70% 29.90 in 10.0 mi North 6.9 mph - N/A   Clear
2:35 AM 37.4 °F 29.8 °F 27.9 °F 68% 29.90 in 10.0 mi North 11.5 mph - N/A   Clear
2:55 AM 37.4 °F 29.8 °F 27.5 °F 67% 29.89 in 10.0 mi North 11.5 mph - N/A   Clear
3:15 AM 36.9 °F 30.1 °F 26.6 °F 66% 29.89 in 10.0 mi North 9.2 mph 17.3 mph N/A   Clear
3:35 AM 36.7 °F 28.4 °F 27.0 °F 68% 29.90 in 10.0 mi North 12.7 mph 18.4 mph N/A   Scattered Clouds
3:55 AM 36.5 °F 28.7 °F 26.4 °F 67% 29.91 in 10.0 mi North 11.5 mph 18.4 mph N/A   Mostly Cloudy
4:15 AM 36.1 °F 27.3 °F 26.1 °F 67% 29.92 in 10.0 mi North 13.8 mph 19.6 mph N/A   Overcast
4:35 AM 36.0 °F 29.0 °F 25.7 °F 66% 29.93 in 10.0 mi North 9.2 mph - N/A   Overcast
4:55 AM 36.0 °F 27.5 °F 25.3 °F 65% 29.93 in 10.0 mi North 12.7 mph 18.4 mph N/A   Overcast
5:15 AM 35.8 °F 28.8 °F 26.4 °F 69% 29.94 in 10.0 mi NNW 9.2 mph - N/A   Overcast
5:35 AM 35.6 °F 28.6 °F 25.7 °F 67% 29.96 in 10.0 mi NNW 9.2 mph - N/A   Overcast
5:55 AM 35.1 °F 27.4 °F 25.3 °F 68% 29.96 in 10.0 mi NNW 10.4 mph 16.1 mph N/A   Overcast
6:15 AM 34.9 °F 26.6 °F 24.3 °F 65% 29.97 in 10.0 mi NNW 11.5 mph 17.3 mph N/A   Overcast
6:35 AM 34.7 °F 27.5 °F 23.5 °F 64% 29.98 in 10.0 mi NNW 9.2 mph - N/A   Overcast
7:15 AM 34.5 °F 27.3 °F 22.6 °F 62% 29.99 in 10.0 mi NNW 9.2 mph 17.3 mph N/A   Overcast
7:35 AM 34.3 °F 27.0 °F 22.1 °F 61% 30.00 in 10.0 mi NNW 9.2 mph 19.6 mph N/A   Overcast
7:55 AM 35.1 °F 27.4 °F 21.9 °F 59% 30.01 in 10.0 mi NNW 10.4 mph 16.1 mph N/A   Overcast
8:15 AM 35.8 °F 28.3 °F 22.1 °F 58% 30.01 in 10.0 mi NNW 10.4 mph 17.3 mph N/A   Overcast
8:35 AM 36.5 °F 29.7 °F 21.6 °F 55% 30.02 in 10.0 mi NNW 9.2 mph - N/A   Mostly Cloudy
8:55 AM 36.9 °F 30.1 °F 21.0 °F 53% 30.02 in 10.0 mi NNW 9.2 mph 16.1 mph N/A   Scattered Clouds
9:15 AM 37.6 °F 30.0 °F 20.1 °F 49% 30.03 in 10.0 mi NNW 11.5 mph 20.7 mph N/A   Clear
9:35 AM 39.0 °F 31.4 °F 22.5 °F 52% 30.03 in 10.0 mi NW 12.7 mph 18.4 mph N/A   Clear
9:55 AM 38.7 °F 31.4 °F 21.7 °F 51% 30.03 in 10.0 mi NNW 11.5 mph 18.4 mph N/A   Clear
10:15 AM 39.4 °F 32.7 °F 22.1 °F 50% 30.03 in 10.0 mi NW 10.4 mph 16.1 mph N/A   Clear
10:35 AM 40.3 °F 33.0 °F 22.5 °F 49% 30.03 in 10.0 mi WNW 12.7 mph 19.6 mph N/A   Clear
10:55 AM 40.1 °F 32.0 °F 22.3 °F 49% 30.02 in 10.0 mi NNW 15.0 mph 20.7 mph N/A   Clear
11:15 AM 40.1 °F 32.4 °F 21.7 °F 48% 30.02 in 10.0 mi NW 13.8 mph 21.9 mph N/A   Clear
11:35 AM 40.6 °F 34.8 °F 23.0 °F 49% 30.02 in 10.0 mi WNW 9.2 mph 19.6 mph N/A   Clear
11:55 AM 41.0 °F 35.2 °F 23.0 °F 49% 30.02 in 10.0 mi NW 9.2 mph 18.4 mph N/A   Clear
12:15 PM 41.5 °F 35.0 °F 22.6 °F 47% 30.02 in 10.0 mi WNW 11.5 mph 18.4 mph N/A   Clear
12:35 PM 41.7 °F 34.1 °F 22.1 °F 46% 30.01 in 10.0 mi WNW 15.0 mph 19.6 mph N/A   Clear
12:55 PM 43.3 °F 36.1 °F 22.5 °F 44% 30.00 in 10.0 mi WNW 15.0 mph 21.9 mph N/A   Clear
1:15 PM 43.3 °F 36.1 °F 21.2 °F 41% 30.00 in 10.0 mi WNW 15.0 mph 20.7 mph N/A   Clear
1:55 PM 44.2 °F 38.0 °F 20.1 °F 38% 29.98 in 10.0 mi WNW 12.7 mph 20.7 mph N/A   Clear
2:15 PM 44.8 °F 39.4 °F 20.3 °F 38% 29.98 in 10.0 mi WNW 10.4 mph 20.7 mph N/A   Clear
2:35 PM 45.0 °F 39.7 °F 19.6 °F 36% 29.98 in 10.0 mi NW 10.4 mph 18.4 mph N/A   Clear
2:55 PM 45.5 °F 39.2 °F 21.0 °F 38% 29.98 in 10.0 mi WNW 13.8 mph 20.7 mph N/A   Clear
3:15 PM 46.2 °F 40.1 °F 21.4 °F 37% 29.98 in 10.0 mi WNW 13.8 mph 19.6 mph N/A   Clear
3:35 PM 46.0 °F 40.6 °F 20.7 °F 37% 29.97 in 10.0 mi WNW 11.5 mph 18.4 mph N/A   Clear
3:55 PM 46.4 °F 41.9 °F 20.3 °F 36% 29.97 in 10.0 mi WNW 9.2 mph 17.3 mph N/A   Clear
4:15 PM 46.4 °F 41.9 °F 21.7 °F 38% 29.97 in 10.0 mi WNW 9.2 mph 16.1 mph N/A   Clear
4:35 PM 45.9 °F 42.3 °F 20.8 °F 37% 29.98 in 10.0 mi WNW 6.9 mph 18.4 mph N/A   Clear
4:55 PM 45.9 °F 41.2 °F 20.5 °F 37% 29.97 in 10.0 mi WNW 9.2 mph - N/A   Clear
5:15 PM 45.5 °F 41.3 °F 22.3 °F 40% 29.98 in 10.0 mi WNW 8.1 mph - N/A   Clear
5:35 PM 44.8 °F 41.0 °F 21.7 °F 40% 29.98 in 10.0 mi WNW 6.9 mph 16.1 mph N/A   Clear
5:55 PM 44.1 °F 39.5 °F 22.3 °F 42% 29.99 in 10.0 mi WNW 8.1 mph - N/A   Clear
6:15 PM 43.7 °F 39.7 °F 23.2 °F 44% 30.00 in 10.0 mi WNW 6.9 mph - N/A   Clear
6:35 PM 43.3 °F 41.7 °F 25.9 °F 50% 30.01 in 10.0 mi West 3.5 mph - N/A   Clear
6:55 PM 43.7 °F 41.1 °F 27.1 °F 52% 30.01 in 10.0 mi West 4.6 mph - N/A   Clear
7:15 PM 43.2 °F 40.5 °F 27.9 °F 55% 30.02 in 10.0 mi West 4.6 mph - N/A   Clear
7:55 PM 42.6 °F 39.0 °F 28.0 °F 56% 30.03 in 10.0 mi West 5.8 mph - N/A   Clear
8:15 PM 42.3 °F 38.6 °F 27.3 °F 56% 30.04 in 10.0 mi West 5.8 mph - N/A   Clear
8:35 PM 42.1 °F 40.2 °F 26.8 °F 55% 30.04 in 10.0 mi West 3.5 mph - N/A   Clear
8:55 PM 42.1 °F 40.2 °F 27.1 °F 55% 30.04 in 10.0 mi West 3.5 mph - N/A   Clear
9:35 PM 41.9 °F 40.0 °F 27.3 °F 56% 30.05 in 10.0 mi West 3.5 mph - N/A   Clear
9:55 PM 41.7 °F 39.8 °F 27.7 °F 58% 30.06 in 10.0 mi West 3.5 mph - N/A   Clear
10:15 PM 41.7 °F 39.8 °F 27.0 °F 56% 30.06 in 10.0 mi West 3.5 mph - N/A   Clear
10:35 PM 41.0 °F 38.0 °F 27.3 °F 58% 30.06 in 10.0 mi West 4.6 mph - N/A   Clear
10:55 PM 41.2 °F 37.3 °F 26.8 °F 57% 30.06 in 10.0 mi West 5.8 mph - N/A   Clear
11:15 PM 41.0 °F 39.0 °F 26.4 °F 56% 30.06 in 10.0 mi West 3.5 mph - N/A   Clear
11:35 PM 41.2 °F 38.2 °F 26.4 °F 56% 30.06 in 10.0 mi West 4.6 mph - N/A   Clear
11:55 PM 41.0 °F 39.0 °F 28.6 °F 61% 30.06 in 10.0 mi West 3.5 mph - N/A   Clear